Regional Weather Roundup
Issued by NWS

Home | Current Version | Previous Version | Graphics & Text | Print | Product List | Glossary Off
Versions: 1 2 3 4 5 6 7 8 9 10 11 12 13 14 15 16 17 18 19 20 21 22 23 24 25 26 27 28 29 30 31 32 33 34 35 36 37 38 39 40 41 42 43 44 45 46 47 48 49 50

913
ASUS45 KBOU 172110
RWRCO

WEATHER ROUNDUP FOR COLORADO
NATIONAL WEATHER SERVICE DENVER/BOULDER CO
200 PM MST FRI NOV 17 2017

NOTE: "FAIR" INDICATES FEW OR NO CLOUDS BELOW 12000 FEET WITH NO
SIGNIFICANT WEATHER AND/OR OBSTRUCTIONS TO VISIBILITY.

COZ001>005-013-030-031-172200-
...NORTHWEST COLORADO...

CITY           SKY/WX    TMP DP  RH WIND       PRES   REMARKS
CRAIG          LGT RAIN  36  31  82 W8G17     29.74R
HAYDEN         RAIN      35  33  92 SW10      29.72R WCI  27
MEEKER         CLOUDY    60  28  29 SW33G51   29.63F
RABBIT EARS PA SNOW      30  28  93 W12G22    29.74S VSB 1/4 WCI  21
STEAMBOAT SPGS CLOUDY    40  37  89 SW5       29.68S
WALDEN         CLOUDY    32  30  93 N16       29.73R VSB 1/2 WCI  21
$$

COZ006>008-011-172200-
...WEST CENTRAL VALLEYS...

CITY           SKY/WX    TMP DP  RH WIND       PRES   REMARKS
GRAND JUNCTION LGT RAIN  68  31  25 W23G38    29.68F
MONTROSE       LGT RAIN  57  37  47 SW17G26   29.80F
EAGLE          FAIR      55  32  41 SW28G36   29.69F
RIFLE          PTSUNNY   61  32  33 SW28G36   29.65F
DELTA          FAIR      68  27  21 SW24G38   29.71F
NUCLA          CLOUDY    61  30  31 SW35G46   29.84F
$$

COZ017>023-064>068-172200-
...SOUTHWEST COLORADO...

CITY           SKY/WX    TMP DP  RH WIND       PRES   REMARKS
DURANGO        LGT RAIN  52  35  52 W26G39    29.94F
CORTEZ         PTSUNNY   58  36  43 SW28G36   29.91F
PAGOSA SPRINGS LGT RAIN  43  38  82 W8        29.97F
TELLURIDE      CLOUDY    46  29  52 SW10G31   29.97F
WOLF CREEK PAS HVY SNOW  27  27 100 SW30      30.02F VSB<1/4 WCI  10
$$

COZ009-010-012-014-032>034-037-058>063-172200-
...CENTRAL COLORADO...

CITY           SKY/WX    TMP DP  RH WIND       PRES   REMARKS
ASPEN          LGT RAIN  44  35  70 SE20G25   29.76F
BUENA VISTA    LGT RAIN  46  33  60 S7        29.78S
COPPER MTN     CLOUDY    34  27  75 W35       29.84F WCI  19
BERTHOUD PASS    N/A     23  12  63 W30       29.81F WCI   5
COTTONWOOD PAS LGT SNOW  41  36  81 SW16G25   29.82F
GUNNISON       LGT RAIN  46  34  62 SW22G36   29.82S
KREMMLING      DRIZZLE   54  36  50 SW13G31   29.69F
LEADVILLE      LGT SNOW  33  30  88 S9        29.80S VSB 3/4 WCI  25
MONARCH PASS     N/A     30  27  86 W55G72    29.94S WCI  11
SALIDA         PTSUNNY   53  30  41 W21G32    29.84F
SUNLIGHT       CLOUDY    34  28  80 SW24G44   29.82F WCI  21
WILKERSON PASS CLOUDY    32  30  93 SW17G28   29.86F WCI  21
$$

COZ069>075-172200-
...SAN LUIS VALLEY/SANGRE DE CRISTO MOUNTAINS...

CITY           SKY/WX    TMP DP  RH WIND       PRES   REMARKS
ALAMOSA        FAIR      51  33  50 SW25G35   29.88S
DEL NORTE      DRIZZLE   45  34  66 SW12G23   29.88S
LA VETA PASS   CLOUDY    36  30  80 S30G56      N/A
SAGUACHE       CLOUDY    52  32  46 CALM      29.82
$$

COZ035-036-038>040-172200-
...NORTHERN COLORADO FRONT RANGE...

CITY           SKY/WX    TMP DP  RH WIND       PRES   REMARKS
DENVER INTL AP PTSUNNY   66  30  26 W20       29.58F
DMNS CITY PARK   N/A     63  29  27 W17G24    29.59S
AURORA         PTSUNNY   65  30  27 W20G25    29.60F
FRONT RANGE AP PTSUNNY   68  30  24 SW22      29.60F
ERIE MUNI ARPT FAIR      64  30  28 SW16G24   29.63F
BOULDER MUN AP FAIR      61  32  33 S12       29.58F
CENTENNIAL     PTSUNNY   63  31  30 W16       29.61F
BROOMFIELD     PTSUNNY   63  30  29 SW22G30   29.62
FORT COLLINS   FAIR      52  37  56 N29G35    29.59R
LONGMONT       FAIR      65  34  31 SW12      29.58S
$$

COZ041-046-047-076>085-087-088-172200-
...PIKES PEAK/PALMER DIVIDE AND SOUTHERN FOOTHILLS...

CITY           SKY/WX    TMP DP  RH WIND       PRES   REMARKS
COLO. SPRINGS  FAIR      66  30  26 SW24G30   29.65F
A. F. ACADEMY  LGT RAIN  61  27  27 SW22G30   29.66F
SCHRIEVER AFB  FAIR      64  28  26 SW25G33   29.66F
CHEYENNE MTN   FAIR      58  25  27 SE22G39   29.62F
ELLICOTT       NOT AVBL
FALCON         FAIR      63  24  23 W18G26    29.69F
FORT CARSON    FAIR      65  31  28 SW20G33   29.63F
LIMON          FAIR      69  30  23 SW20G28   29.57F
MONUMENT HILL  FAIR      59  28  31 W22G33    29.69S
CANON CITY     FAIR      68  34  28 W15G25    29.65F
WALSENBURG     FAIR      63  34  34 SW30G44   29.73S
TRINIDAD       FAIR      68  32  26 W29G39    29.71F
$$

COZ042>045-048>051-090-091-172200-
...NORTHEAST COLORADO...

CITY           SKY/WX    TMP DP  RH WIND       PRES   REMARKS
GREELEY ARPT   FAIR      60  37  42 MISG        N/A
AKRON          FAIR      61  31  32 E10       29.57F
BURLINGTON     FAIR      69  33  26 NE17G26   29.52F
WRAY           NOT AVBL
YUMA           FAIR      55  32  41 NE9       29.56F
STERLING       FAIR      59  32  36 N8        29.58R
HOLYOKE        FAIR      61  32  33 E8        29.56F
FORT MORGAN    FAIR      61  29  30 E8        29.57F
$$

COZ086-089-092>099-172200-
...SOUTHEAST COLORADO...

CITY           SKY/WX    TMP DP  RH WIND       PRES   REMARKS
PUEBLO         FAIR      70  34  26 NW14G20   29.62F
LA JUNTA       FAIR      76  32  20 W35G47    29.58F
LAMAR          FAIR      79  31  17 W30G41    29.53F
SPRINGFIELD      N/A     77  32  19 W31G45    29.63F
$$




USA.gov is the U.S. government's official web portal to all federal, state and local government web resources and services.